Location: Lynchburg College Observatory
(37.3822°N, 79.5391°W)
Time: 01:42:01
(UTC-04:00)

Hubble Space Telescope - Visible Passes

Search period start: 26 April 2018 00:00
Search period end: 06 May 2018 00:00
Orbit: 537 x 541 km, 28.5° (Epoch: 25 April)

Date Brightness Start Highest point End Pass type
(mag) Time Alt. Az. Time Alt. Az. Time Alt. Az.
26 Apr 2.5 21:17:54 10° SSW 21:20:34 17° SSE 21:20:37 17° SSE visible
27 Apr 2.4 21:07:14 10° SW 21:10:09 19° SSE 21:11:13 17° SSE visible
28 Apr 2.3 20:56:39 10° SW 20:59:45 20° S 21:01:43 15° SE visible
29 Apr 2.3 20:46:08 10° SW 20:49:20 22° S 20:52:06 12° SE visible
29 Apr 3.2 22:26:48 10° WSW 22:27:28 13° SW 22:27:28 13° SW visible
30 Apr 2.2 20:35:39 10° SW 20:38:56 23° S 20:42:13 10° ESE visible
30 Apr 3.0 22:16:31 10° WSW 22:17:47 16° SW 22:17:47 16° SW visible
01 May 2.8 22:06:17 10° WSW 22:08:03 17° SSW 22:08:03 17° SSW visible
02 May 2.7 21:56:07 10° SW 21:58:17 16° SSW 21:58:17 16° SSW visible
03 May 2.8 21:46:03 10° SW 21:48:20 14° SSW 21:48:30 14° SSW visible
04 May 3.0 21:36:10 10° SW 21:37:54 12° SSW 21:38:43 12° S visible
05 May 3.2 21:26:59 10° SSW 21:27:27 10° SSW 21:27:55 10° SSW visible
